Regional Weather Roundup
Issued by NWS Wakefield, VA

Home | Current Version | Previous Version | Graphics & Text | Print | Product List | Glossary On
Versions: 1 2 3 4 5 6 7 8 9 10 11 12 13 14 15 16 17 18 19 20 21 22 23 24 25 26 27
000
ASUS41 KAKQ 292215
RWRAKQ

REGIONAL WEATHER ROUNDUP
NATIONAL WEATHER SERVICE WAKEFIELD VA
600 PM EDT SUN MAY 29 2016

Note: "fair" indicates few or no clouds below 12,000 feet with no
significant weather and/or obstructions to visibility. * = Denotes
station may not report precipitation (e.g., rain,snow,etc.),
thunder or fog.

VAZ042-051-052>054-056-292300-
NORTHERN VIRGINIA

CITY           SKY/WX    TMP DP  RH WIND       PRES   REMARKS
WASH NATIONAL  RAIN      73  71  93 SE9       30.08S FOG
DULLES         LGT RAIN  77  61  57 SE7       30.07S
FORT BELVOIR   LGT RAIN  73  70  91 SE2       30.07S
QUANTICO       LGT RAIN  73  69  87 SE8       30.08S
FREDERICKSBRG* DRIZZLE   71  71 100 E5        30.07S
STAFFORD*      DRIZZLE   71  69  94 E6        30.11S
WARRENTON      CLOUDY    76  61  59 SE5       30.06F
CULPEPER*      CLOUDY    78  69  73 CALM      30.07S
MANASSAS*      PTSUNNY   75  70  83 SE9       30.06F
LEESBURG*      LGT RAIN  81  70  69 S7        30.07F
WINCHESTER     PTSUNNY   79  64  61 CALM      30.07S
FRONT ROYAL*   CLOUDY    75  70  83 CALM      30.06S
LURAY*         LGT RAIN  73  66  78 SW6       30.09R
$$

VAZ048-049-060>072-079>083-292300-
CENTRAL AND SOUTH CENTRAL VIRGINIA

CITY           SKY/WX    TMP DP  RH WIND       PRES   REMARKS
RICHMOND       RAIN      71  70  96 N10       30.05S FOG
CHESTERFIELD*  CLOUDY    72  61  68 N7        30.06F
PETERSBURG*    LGT RAIN  74  74 100 CALM      30.04F
HANOVER        HVY RAIN  69  67  93 N3        30.07F FOG
TAPPAHANNOCK*  LGT RAIN  76  76 100 CALM      30.06F
QUINTON*       CLOUDY    74  73  99 N6        30.05S
CHARLOTTSVILLE LGT RAIN  74  63  68 CALM      30.07S
GORDONSVILLE*  CLOUDY    76  68  77 CALM      30.06S
ORANGE*        CLOUDY    75  63  64 CALM      30.09S
LOUISA*        CLOUDY    79  70  73 CALM      30.06S
BUMPASS*       CLOUDY    72  68  88 E6        30.07S
FARMVILLE*     CLOUDY    77  70  81 CALM      30.05R
CREWE*         CLOUDY    70  70 100 CALM      30.05F
FORT PICKETT*  NOT AVBL
CHASE CITY*    CLOUDY    71  69  95 CALM      30.07S
CLARKSVILLE*   CLOUDY    70  70 100 NW5       30.05F
SOUTH HILL*    CLOUDY    73  71  93 N8        30.10S
LAWRENCEVILLE* CLOUDY    75  72  89 CALM      30.03F
EMPORIA*       FAIR      77  73  88 E5        30.04S
$$

VAZ088>098-292300-
SOUTHEAST VIRGINIA

CITY           SKY/WX    TMP DP  RH WIND       PRES   REMARKS
NORFOLK        PTSUNNY   78  72  81 SE8       30.04F
VIRGINIA BEACH PTSUNNY   80  73  79 SE6       30.04S
NORFOLK NAVAL  PTSUNNY   78  74  87 S5        30.05F
WEST POINT*    CLOUDY    76  73  88 E5        30.06F
SALUDA*        CLOUDY    74  73  98 SE5       30.05F
NEWPORT NEWS   PTSUNNY   76  74  93 SE6       30.04F
LANGLEY AFB    FAIR      76  74  94 SE7       30.04F
FORT EUSTIS    FAIR      76  69  78 SE5       30.02F
WILLIAMSBURG*  FAIR      77  75  94 S7        30.06S
HR EXEC AP*      N/A     75  72  88 SE5       30.05F
FRANKLIN*      FAIR      78  72  81 SE6       30.04S
US460-WAKEFLD  FAIR      77  71  82 S6        30.04S
$$

VAZ020-022-025-037-045-292300-
WEST CENTRAL AND SOUTHWEST VIRGINIA

CITY           SKY/WX    TMP DP  RH WIND       PRES   REMARKS
STAUNTON*      LGT RAIN  65  63  91 S3        30.13F
WAYNESBORO*    CLOUDY    63  60  90 S3        30.13F
HOT SPRINGS VA DRIZZLE   60  58  91 E3        30.20F
LYNCHBURG      CLOUDY    66  59  78 N5        30.10F
DANVILLE       CLOUDY    69  62  78 N6        30.08F
SOUTH BOSTON*  CLOUDY    66  64  95 N6        30.08S
MARTINSVILLE   CLOUDY    65  57  76 N6        30.14S
ROANOKE        RAIN      65  60  84 E8        30.15R
BLACKSBURG     CLOUDY    69  62  79 CALM      30.18S
DUBLIN*        LGT RAIN  67  64  89 E5        30.16F
MARION*        CLOUDY    69  61  77 CALM      30.17F
HILLSVILLE*    CLOUDY    67  58  72 N3        30.15F
RICHLANDS*     MOCLDY    71  65  82 CALM      30.14F
WISE*          FAIR      72  59  64 W3        30.16F
ABINGDON*      FAIR      74  54  48 S6        30.12F
$$

MDZ021>025-VAZ099-100-292300-
SOUTHERN MARYLAND AND THE DELMARVA PENINSULA

CITY           SKY/WX    TMP DP  RH WIND       PRES   REMARKS
PATUXENT RIVER CLOUDY    74  71  91 SE6       30.06F
BAY BRIDGE APT LGT RAIN  75  73  94 S6        30.08R
LEONARDTOWN    CLOUDY    73  70  88 CALM      30.08F
DOVER          CLOUDY    75  75 100 SW6       30.06F
GEORGETOWN     CLOUDY    77  72  84 S7        30.08S
EASTON         CLOUDY    77  75  94 CALM      30.11S
CAMBRIDGE      CLOUDY    75  70  83 S3        30.06F
SALISBURY      CLOUDY    77  72  84 S8        30.07S
OCEAN CITY     CLOUDY    70  68  93 SE5       30.08F
WALLOPS ISLAND PTSUNNY   74  70  87 S7        30.08F
ACCOMACK*      FAIR      75  68  78 CALM      30.06F
$$

NCZ012>017-030>032-292300-
NORTH CENTRAL AND EASTERN NORTH CAROLINA

CITY           SKY/WX    TMP DP  RH WIND       PRES   REMARKS
ROANOKE RAPIDS LGT RAIN  77  73  88 SE3       30.02S
RALEIGH        LGT RAIN  70  66  88 NW5       30.03F
ELIZABETH CITY MOSUNNY   80  72  76 SE12      30.05S
AHOSKIE*       MOSUNNY   79  72  79 SE5       30.03S
EDENTON*       MOSUNNY   82  73  74 S5        30.04S
CURRITUCK*     MOSUNNY   79  76  91 S6        30.06S
KILL DEVIL HLS MOSUNNY   80  74  82 S5        30.05F
MANTEO         NOT AVBL
CAPE HATTERAS  HVY RAIN  77  73  87 S15       30.06F FOG
TARBORO*       FAIR      79  74  85 CALM      30.02F
GOLDSBORO      NOT AVBL
WASHINGTON     SUNNY     82  72  70 SE8G18    30.02S
GREENVILLE     CLOUDY    84  72  65 SE10G18   30.03S
NEW BERN       PTSUNNY   81  70  69 S9        30.03S
WILMINGTON     MOSUNNY   79  71  76 S14G22    29.98S
$$

VAZ048-292300-
ELSEWHERE

CITY           SKY/WX    TMP DP  RH WIND       PRES   REMARKS
HARRISBURG PA  CLOUDY    84  61  45 SW6       30.03S
BALTIMORE      LGT RAIN  74  70  87 S8        30.07R FOG
ANNAPOLIS      LGT RAIN  75  71  87 S5        30.07R
ANDREWS AFB    RAIN      72  70  94 SW3       30.07  FOG
PHILADELPHIA   CLOUDY    81  67  62 S13       30.07R
HENDERSON NC   CLOUDY    70  68  94 N5        30.05S
GREENSBORO     CLOUDY    71  62  73 NE12G21   30.07F
ROCKY MOUNT    MOSUNNY   80  73  79 E6        30.01S
$$

VAZ100-292300-
MARINE

STATION/POSITION TIME  TEMP    WIND        PRES    WAVE   SWELL
                       AIR SEA DIR/SP/G            HT/PER HT/PER
                 (UTC) (F)     (DEG/KT/KT) (MB)    (FT/S) (FT/S)
BRANDYWINE LGT   2100   66     170/ 13/ 15 1018.8F
CAPE MAY NJ      2100   74 69  140/  9/ 13 1018.6F
LEWES DE         2100   77 67  180/ 10/ 13 1018.6F
15NM E FENWICK I 2150   68 66              1018.7F   3/ 8
OCEAN-CITY-INLET 2100   70 60  160/  6/  8 1019.4F
WACHAPREAGUE VA  2100   74 79  180/  6/  9 1018.1F
THOMAS POINT MD  2200   71 68  180/ 10/ 10 1019.6R
GOOSES REEF MD   2200   71 69  190/  4/  6 1019.2F   1
COVE POINT MD    2100   71     190/  8/  9 1018.8F
SOLOMONS ISLAND  2100   72 69  130/  5/  6   N/A
BISHOPS HEAD MD  2100   75 80  160/  8/  9 1018.3F
PINEY POINT MD   2100          140/  7/  7   N/A
POTOMAC MD       2200   72 71  150/  4/  4 1017.0F   0
CAMBRIDGE MD     2100   77 68  170/  5/  9 1017.4F
LEWISETTA VA     2100   72 72  110/  8/  9 1017.6F
RAPPAHANNOCK LGT 2100          140/ 10/ 10 1018.8F
STINGRAY PT      2200   73 69  130/  6/  8 1017.9F   1
YORK RVR RNG VA  2100   72     130/ 12/ 14 1017.1F
YORKTOWN VA      2100   73 71  100/  7/  9 1017.2F
JAMESTOWN VA     2200   76 76  120/  6/  8   N/A
DOMINION TERM VA 2100   74     140/  9/ 12 1017.4F
KIPTOPEKE VA     2100      70  160/ 10/ 12   N/A
CHES BAY BRIDGE  2100   73 64  100/  4/  7 1017.6F
CAPE HENRY VA    2100   72     140/  8/ 12   N/A
CHESAPEAKE LGHT  2100   72     160/ 17/ 18 1018.5F
WILLOUBY STN VA  2100   75     150/ 10/ 11 1018.5F
CAPE HENRY BUOY  2112      70                N/A     3/ 8
1ST LANDING BUOY 2200   70 69  130/  6/  8 1017.4F   1/ 4
CAPE CHARLES BUO 2126      69                N/A     3/ 8   2/ 8
OFFSHORE WE BUOY 2121      71                N/A     4/ 7   2/11
64NM E OF VA BCH 2150   70 65  140/  6/  8 1018.3F   4/ 8   3/ 8
DUCK PIER NC     2100   72 64  140/ 17/ 19 1017.1F
44100 DUCK FRF   2124      70                N/A     4/ 8
44056 DUCK FRF   2111      67                N/A     3/ 7
OREGON INLET NC  2100   80 79  150/ 14/ 18 1018.0F
HATTERAS NC      2100   77 77  160/  6/  8 1017.6F
DIAMOND SHLS NC  2150   78 78  180/ 19/ 21 1017.2F   6/ 8   2/16
CAPE LOOKOUT NC  220C1F1C2F2C3F3C4F4C5F5C6F6C7F7C8M1C9!



USA.gov is the U.S. government's official web portal to all federal, state and local government web resources and services.